Wind_Speed
44 45 45 47 48 49 52 50 48 44 42 39 39 35 34 34 35 35 35 35 35 35 35 34 33 33 33 32 32 31 31 31 30 30 30 30 30 30 30 30 31 31 31 32
43 44 45 47 48 48 49 48 46 44 42 39 38 37 36 36 36 35 34 34 35 35 34 33 33 32 32 31 30 29 29 29 29 29 29 29 29 29 29 30 30 31 31 32
44 43 46 48 47 46 46 47 46 44 40 39 39 38 37 37 37 36 35 34 34 34 34 33 32 32 31 30 29 28 28 28 28 28 28 28 28 28 29 29 30 30 31 32
43 42 43 43 42 44 43 44 45 45 42 40 39 38 39 39 38 37 36 35 35 34 34 33 32 31 30 29 28 28 28 28 28 27 27 27 28 28 29 29 30 31 32 33
41 41 41 42 41 41 42 44 43 45 44 42 40 42 42 41 40 39 38 37 35 34 33 33 32 31 30 29 28 28 28 28 27 27 27 27 28 28 29 30 30 31 32 33
41 42 40 39 39 41 42 43 43 44 44 42 42 43 41 40 40 39 38 37 36 35 34 33 32 31 30 29 29 28 28 27 27 27 27 27 27 28 29 30 31 32 32 34
39 41 41 39 39 41 42 40 41 42 42 42 42 40 37 39 40 40 39 38 37 36 35 33 32 31 30 29 29 28 28 27 27 27 27 27 28 29 29 30 31 32 33 34
40 41 40 38 39 41 41 42 41 40 41 41 40 39 39 40 40 40 39 38 37 36 35 34 32 31 30 30 29 28 28 28 28 28 27 28 29 29 30 31 32 32 33 34
37 39 39 38 39 39 41 42 41 40 39 40 40 40 39 39 39 39 38 38 37 35 35 34 33 32 31 30 29 28 28 28 28 28 28 28 29 29 30 31 32 33 34 35
37 41 41 39 39 39 40 41 42 40 39 38 39 39 38 38 38 37 36 37 37 36 35 34 33 32 31 30 29 28 28 28 28 28 28 29 29 30 30 31 32 33 34 35
36 39 40 39 39 39 39 40 41 40 40 39 38 38 37 37 38 37 36 36 35 35 34 33 32 31 31 30 29 28 28 28 28 29 29 29 29 30 31 32 32 33 35 36
36 37 38 39 40 40 39 38 40 40 39 39 36 36 36 35 35 36 36 35 35 34 33 33 32 31 30 29 29 28 28 28 29 29 29 29 30 31 31 32 33 34 35 36
35 37 40 40 40 39 39 38 39 38 37 36 35 34 35 34 33 34 34 34 33 33 32 32 32 31 30 29 29 29 28 28 28 29 29 30 30 31 32 33 34 35 36 36
36 38 40 41 41 41 39 39 39 37 37 36 35 34 34 33 33 33 33 33 32 32 32 31 31 30 29 29 29 28 28 28 28 29 29 30 30 31 32 33 34 35 36 37
37 38 39 40 41 41 40 39 38 37 37 36 34 34 33 31 31 32 32 32 31 31 30 30 30 29 29 28 28 28 28 28 28 29 29 30 31 32 33 33 34 36 37 38
40 41 41 40 41 41 41 40 37 36 36 34 33 33 32 30 30 31 30 30 30 30 29 29 29 29 28 28 28 28 28 28 28 29 29 30 31 32 32 33 35 36 37 38
41 42 42 42 41 40 42 41 38 35 34 33 32 32 31 30 30 30 30 29 29 29 29 29 28 28 28 28 28 27 27 27 28 29 30 30 31 31 33 34 35 36 37 39
40 41 42 42 41 41 43 42 38 36 35 33 31 30 30 29 29 29 29 29 28 28 29 29 28 28 28 27 27 27 27 27 28 28 29 30 31 32 33 34 35 36 38 40
38 39 41 42 42 42 42 41 40 38 36 33 31 30 29 28 28 28 28 28 28 28 28 27 27 27 27 27 27 26 26 27 27 28 29 30 31 32 33 34 36 37 39 42
37 38 40 42 42 42 41 41 40 38 36 34 32 31 29 28 28 27 27 27 27 26 26 26 26 26 26 25 25 25 26 27 27 28 29 30 32 33 34 36 37 39 41 43
37 38 40 42 43 42 41 40 39 37 36 34 33 31 28 27 26 26 25 24 24 24 24 25 25 24 24 25 25 25 26 27 28 29 30 31 33 34 35 37 39 40 42 45
37 38 39 42 44 42 41 39 38 37 35 34 33 31 29 27 26 25 24 24 24 24 24 23 23 23 23 24 25 26 26 27 28 30 31 32 33 35 36 38 40 41 44 46
37 38 39 41 42 41 40 39 38 37 35 33 32 30 29 28 26 24 24 24 24 24 24 24 23 23 24 25 26 26 27 28 29 31 32 33 34 36 38 39 41 43 46 48
36 37 39 40 41 40 39 38 37 37 35 33 31 30 29 28 26 25 24 24 24 24 24 24 24 24 25 26 26 27 28 29 30 31 32 34 35 37 39 40 42 45 48 50
35 37 38 38 38 39 39 38 37 37 35 33 31 29 28 26 25 25 24 24 25 25 25 25 25 25 26 26 27 28 29 30 31 32 33 35 36 38 40 42 45 47 49 51
35 36 36 36 36 37 38 37 37 35 33 31 29 28 27 25 25 24 24 24 25 25 25 25 25 25 26 26 27 28 29 30 31 33 34 36 38 40 42 44 46 48 50 51
33 34 34 34 35 36 36 36 35 33 31 29 28 28 27 26 25 24 24 24 24 25 25 25 25 25 26 27 28 30 30 31 32 34 36 37 39 41 43 45 47 48 50 51
Wind_Direction
226 227 226 224 224 225 225 226 227 225 225 224 226 226 224 223 222 224 226 227 230 232 234 236 238 240 242 245 248 250 253 255 257 260 262 264 266 268 270 271 273 276 278 280
225 226 227 226 223 224 224 224 224 223 222 220 222 223 222 221 222 223 225 226 229 231 233 235 237 239 241 244 247 249 252 255 257 259 262 264 266 268 270 272 274 276 279 281
225 227 228 228 224 224 225 223 223 222 220 221 221 220 221 222 223 224 224 225 228 229 231 232 234 237 241 243 246 249 252 254 256 259 262 264 266 268 270 272 275 277 280 282
225 224 227 225 224 224 223 221 221 222 221 222 221 219 221 222 222 222 222 223 225 227 228 230 233 236 240 243 246 249 252 254 257 259 262 265 267 269 271 273 276 279 281 283
225 224 224 222 221 221 222 220 220 222 222 221 220 219 218 218 219 220 221 222 223 225 227 229 232 236 239 243 246 249 251 254 257 260 263 266 268 270 272 274 277 280 282 284
226 225 221 217 219 221 222 220 218 221 221 222 222 223 219 219 220 220 221 223 224 225 227 230 233 236 240 243 246 249 252 255 258 261 264 267 269 271 273 276 279 281 283 285
225 225 220 217 216 218 220 218 218 220 221 222 223 222 218 219 220 220 221 223 224 225 228 230 233 237 240 244 246 249 253 255 258 261 265 268 270 272 275 278 280 283 285 287
224 222 218 216 214 215 217 216 217 218 221 222 221 220 218 218 219 220 222 223 225 226 228 231 233 237 240 243 247 250 253 255 258 262 266 269 271 274 277 280 282 284 286 288
221 218 216 216 213 212 213 214 216 218 220 220 219 219 220 219 221 223 223 224 226 228 229 231 234 237 240 243 247 250 253 256 260 263 267 270 273 276 279 281 283 286 288 290
218 215 216 216 213 211 211 213 215 217 218 219 219 220 222 221 221 222 223 224 226 228 230 232 234 236 239 243 247 250 253 257 260 264 268 271 275 277 280 282 285 287 289 291
217 215 215 214 214 212 211 212 213 215 218 219 220 220 220 221 221 222 224 226 227 228 230 232 234 237 240 244 247 250 254 258 262 266 270 273 276 279 281 284 286 288 291 293
216 214 214 211 210 211 210 210 211 212 215 217 218 219 219 218 219 221 224 226 227 229 231 233 235 237 240 244 247 251 255 260 265 269 271 274 277 280 283 285 287 290 293 294
214 212 211 208 208 210 209 207 206 206 209 213 215 216 216 217 218 220 223 225 227 228 230 232 235 238 241 244 249 253 258 262 266 270 273 275 278 281 284 287 289 292 294 295
213 211 208 206 207 207 207 206 203 202 205 208 211 213 213 215 218 220 222 224 226 228 229 232 236 239 242 246 251 255 260 264 267 271 274 277 280 283 286 288 291 293 295 297
212 209 206 205 205 204 204 202 202 203 204 205 209 211 212 214 217 218 221 223 224 226 229 232 236 240 244 248 253 257 261 265 268 272 275 278 282 285 287 290 292 294 296 298
210 209 207 204 204 204 202 200 200 202 202 204 207 210 213 214 216 217 219 221 223 226 230 234 237 242 246 250 254 258 262 266 269 273 277 280 283 286 289 291 294 295 297 300
208 207 206 205 205 203 200 198 199 202 202 203 205 209 213 216 217 217 219 222 224 228 231 235 239 243 247 252 256 260 264 268 271 275 279 282 285 287 290 293 295 297 299 301
208 207 207 205 203 201 200 199 200 201 202 204 208 210 212 214 217 219 222 224 227 231 234 238 242 246 250 254 257 261 265 270 273 277 280 283 286 290 293 295 297 299 301 303
207 207 207 204 200 199 199 198 199 201 202 204 208 209 210 213 216 221 224 226 230 234 237 239 243 247 251 254 259 263 267 271 275 278 282 285 289 292 294 296 299 300 303 305
203 204 203 202 200 199 197 197 198 200 201 204 208 209 212 215 218 222 225 226 229 232 236 240 243 248 252 257 262 265 270 274 278 281 284 288 291 293 295 298 300 302 305 307
199 200 200 200 199 200 200 199 200 201 202 205 208 210 214 216 219 223 225 227 230 234 239 243 247 251 256 260 264 268 272 276 280 283 287 290 293 295 297 299 302 304 306 308
198 198 198 197 197 199 200 200 200 200 202 205 208 211 216 219 221 224 226 230 234 239 243 247 251 255 260 264 267 270 274 279 283 286 290 292 294 296 298 301 304 306 308 310
197 197 196 196 197 198 200 199 200 201 202 205 208 212 215 218 220 223 228 232 236 241 245 248 253 258 262 266 269 272 277 281 285 289 292 294 296 298 301 304 305 307 309 311
196 195 194 196 197 197 198 197 199 201 202 205 209 211 214 217 221 225 229 233 239 242 245 251 256 261 265 268 272 276 280 284 287 290 293 295 298 301 303 305 307 309 311 312
193 191 192 194 195 196 197 198 201 202 203 206 208 212 215 219 223 227 232 237 241 243 248 254 259 264 268 272 275 279 282 285 288 292 294 297 300 302 304 306 308 310 311 313
190 190 191 193 194 195 196 198 199 200 203 207 210 214 217 220 225 229 234 238 241 245 250 255 260 265 270 274 278 281 284 287 290 293 295 298 301 303 306 307 309 310 312 313
188 190 191 192 194 195 197 197 199 201 205 210 214 217 220 224 229 234 237 241 245 248 252 257 261 267 273 276 280 283 286 288 291 294 297 299 302 305 306 308 309 311 313 315
Height
5493 5500 5507 5515 5524 5531 5539 5549 5559 5572 5580 5589 5596 5602 5608 5613 5618 5622 5628 5632 5636 5640 5644 5648 5651 5655 5658 5661 5664 5666 5668 5670 5672 5673 5674 5674 5675 5675 5675 5675 5675 5675 5674 5673
5486 5492 5498 5506 5515 5523 5532 5543 5553 5562 5571 5580 5587 5592 5599 5604 5610 5615 5620 5624 5628 5632 5636 5640 5643 5647 5650 5653 5656 5658 5660 5662 5663 5665 5666 5666 5667 5667 5667 5667 5667 5667 5666 5665
5478 5485 5490 5499 5509 5518 5527 5537 5546 5554 5566 5571 5577 5583 5590 5596 5601 5606 5611 5616 5620 5625 5629 5632 5636 5639 5642 5645 5648 5650 5652 5654 5656 5657 5658 5659 5659 5659 5660 5659 5659 5659 5658 5657
5471 5478 5484 5498 5505 5512 5521 5529 5538 5546 5553 5560 5567 5574 5580 5586 5592 5597 5603 5608 5612 5617 5621 5625 5628 5631 5635 5638 5640 5643 5645 5646 5648 5649 5650 5651 5651 5652 5652 5652 5651 5651 5650 5649
5464 5470 5478 5490 5498 5506 5513 5521 5530 5536 5543 5550 5556 5562 5569 5576 5582 5589 5594 5600 5604 5609 5613 5617 5621 5624 5627 5630 5633 5635 5637 5639 5640 5642 5643 5643 5644 5644 5644 5644 5643 5643 5641 5640
5457 5464 5473 5486 5492 5498 5505 5512 5521 5527 5533 5540 5546 5553 5564 5569 5575 5581 5586 5591 5596 5601 5605 5610 5614 5617 5621 5623 5626 5628 5630 5631 5633 5634 5635 5636 5636 5636 5636 5636 5635 5634 5633 5631
5449 5456 5466 5477 5483 5489 5499 5507 5512 5518 5525 5531 5538 5548 5557 5560 5566 5572 5578 5583 5588 5593 5598 5602 5606 5610 5614 5616 5619 5621 5623 5624 5626 5627 5628 5628 5629 5629 5628 5628 5627 5626 5624 5622
5442 5450 5463 5470 5475 5482 5489 5496 5503 5510 5516 5523 5532 5539 5546 5551 5557 5563 5570 5576 5581 5586 5591 5595 5599 5603 5606 5609 5612 5614 5616 5617 5618 5619 5620 5621 5621 5620 5620 5619 5618 5617 5615 5613
5436 5446 5454 5460 5466 5473 5480 5488 5495 5501 5508 5516 5523 5531 5538 5544 5550 5557 5563 5569 5574 5579 5584 5588 5592 5596 5599 5602 5604 5607 5608 5610 5611 5612 5612 5613 5613 5612 5612 5611 5610 5608 5606 5604
5428 5437 5445 5452 5458 5466 5473 5480 5487 5495 5502 5509 5516 5523 5530 5537 5543 5549 5556 5561 5566 5572 5576 5581 5585 5589 5592 5594 5597 5599 5601 5602 5603 5604 5605 5605 5605 5604 5604 5602 5601 5599 5597 5595
5421 5430 5437 5444 5452 5459 5466 5473 5480 5488 5495 5502 5509 5516 5523 5529 5536 5542 5548 5554 5559 5564 5569 5573 5577 5581 5584 5587 5590 5592 5593 5595 5596 5596 5597 5597 5597 5596 5595 5594 5592 5590 5588 5585
5415 5422 5429 5437 5445 5452 5459 5466 5473 5481 5489 5496 5503 5510 5516 5523 5529 5536 5541 5547 5552 5557 5562 5566 5570 5573 5577 5580 5582 5584 5586 5587 5588 5589 5589 5589 5588 5587 5586 5585 5583 5581 5578 5576
5407 5413 5421 5429 5437 5444 5452 5459 5467 5475 5483 5490 5497 5504 5510 5516 5523 5529 5534 5540 5545 5550 5554 5559 5562 5566 5569 5572 5574 5576 5578 5579 5580 5580 5580 5580 5580 5579 5577 5576 5574 5571 5569 5566
5399 5406 5414 5423 5431 5438 5446 5454 5462 5470 5477 5484 5491 5498 5504 5510 5516 5522 5528 5533 5538 5542 5547 5551 5555 5559 5562 5564 5567 5568 5570 5571 5572 5572 5572 5572 5571 5570 5568 5566 5564 5562 5559 5556
5393 5400 5408 5416 5424 5432 5440 5448 5456 5464 5472 5479 5485 5492 5498 5504 5510 5516 5521 5526 5531 5536 5540 5544 5548 5551 5554 5557 5559 5560 5562 5563 5563 5564 5563 5563 5562 5561 5559 5557 5555 5552 5549 5546
5386 5393 5401 5409 5418 5426 5435 5443 5452 5460 5467 5474 5480 5487 5493 5498 5504 5510 5515 5520 5525 5529 5533 5537 5541 5544 5547 5549 5551 5552 5554 5554 5555 5555 5555 5554 5553 5552 5550 5548 5545 5542 5539 5536
5378 5386 5395 5404 5412 5421 5429 5438 5447 5454 5462 5469 5476 5482 5488 5493 5499 5504 5509 5514 5518 5523 5527 5531 5534 5537 5539 5541 5543 5544 5545 5546 5546 5546 5546 5545 5544 5543 5541 5538 5536 5532 5529 5525
5372 5380 5389 5398 5406 5415 5424 5433 5441 5449 5457 5464 5470 5477 5483 5488 5494 5499 5503 5508 5512 5516 5520 5523 5527 5529 5532 5534 5535 5536 5537 5538 5538 5538 5537 5536 5535 5533 5531 5529 5526 5522 5519 5514
5365 5374 5383 5392 5401 5410 5419 5428 5436 5444 5452 5459 5466 5472 5478 5483 5488 5493 5497 5502 5506 5510 5513 5516 5519 5522 5524 5526 5527 5528 5529 5529 5529 5529 5528 5527 5526 5524 5521 5519 5516 5512 5508 5503
5360 5369 5378 5387 5396 5405 5414 5423 5431 5439 5447 5454 5461 5467 5473 5478 5483 5487 5492 5496 5500 5503 5507 5510 5512 5515 5517 5518 5519 5520 5521 5521 5521 5520 5519 5518 5516 5514 5512 5509 5505 5501 5497 5492
5356 5364 5373 5382 5391 5401 5410 5418 5427 5434 5442 5449 5456 5462 5468 5472 5477 5482 5486 5490 5494 5497 5500 5503 5506 5508 5509 5511 5512 5512 5513 5513 5512 5512 5510 5509 5507 5504 5502 5498 5495 5490 5486 5480
5352 5360 5369 5378 5387 5396 5405 5414 5422 5430 5437 5444 5451 5457 5463 5467 5472 5477 5481 5485 5488 5491 5494 5497 5499 5501 5502 5503 5504 5504 5504 5504 5504 5502 5501 5499 5497 5494 5491 5488 5483 5479 5474 5468
5348 5356 5365 5374 5383 5392 5401 5409 5417 5425 5433 5440 5447 5452 5458 5463 5467 5471 5475 5479 5482 5485 5488 5490 5492 5493 5494 5495 5496 5496 5496 5495 5495 5493 5491 5489 5487 5484 5480 5477 5472 5467 5462 5456
5344 5353 5362 5371 5379 5388 5397 5405 5413 5421 5428 5435 5441 5447 5453 5457 5462 5466 5469 5472 5475 5478 5480 5483 5484 5486 5487 5487 5488 5488 5487 5486 5485 5483 5481 5479 5476 5473 5469 5465 5461 5456 5450 5444
5342 5350 5359 5368 5376 5385 5393 5401 5409 5417 5424 5430 5437 5442 5447 5452 5456 5460 5463 5466 5469 5471 5474 5475 5477 5478 5479 5479 5479 5479 5478 5477 5475 5473 5471 5469 5466 5462 5458 5454 5449 5444 5438 5431
5341 5349 5357 5365 5373 5382 5390 5398 5405 5413 5420 5426 5432 5437 5442 5446 5450 5453 5456 5459 5462 5464 5466 5468 5469 5470 5471 5471 5471 5470 5469 5467 5465 5463 5461 5458 5455 5451 5447 5442 5437 5431 5425 5418
5339 5347 5354 5362 5370 5378 5386 5394 5402 5409 5415 5421 5427 5431 5436 5440 5444 5447 5450 5453 5455 5457 5459 5460 5461 5462 5462 5462 5461 5460 5459 5457 5455 5453 5450 5447 5444 5440 5435 5430 5425 5419 5413 5406